[[{"header":{"parameterUnit":"m.s-1","parameterCategory":1,"la1":30.2991,"la2":30.254,"lo1":-89.0895,"lo2":-89.0444,"dy":0.0017,"dx":0.0017,"nx":28,"ny":28,"refTime":"2024-02-11T09:00:00:Z","depth":0,"parameterNumber":2,"parameterNumberName":"U-component_of_WINDS"},"data":[0,0,0,0,0,0,0,0,0,0,0,0,0,0,0,0,0,0,0,0,0,0,0,0,0,0,0,0,0,0,0,0,0,0,0,0,0,0,0,0,0,0,0,0,0,0,0,0,0,0,0,0,0,0,0,0,0,0,-1.4578,-1.4579,0,-1.4646,-1.4647,-1.4648,-1.4704,-1.4704,-1.4705,-1.4706,-1.4774,-1.4775,-1.4777,0,0,0,0,0,0,0,0,0,0,0,0,0,-1.4496,-1.4497,-1.4578,-1.4579,-1.458,-1.4646,-1.4647,-1.4648,-1.4704,-1.4704,-1.4705,-1.4706,-1.4774,-1.4775,-1.4777,0,0,0,0,0,0,0,0,0,0,0,0,0,-1.4544,-1.4497,-1.4578,-1.4616,-1.462,-1.4646,-1.4647,-1.4648,-1.4704,-1.4704,-1.4705,-1.4706,-1.4773,-1.4775,-1.4777,-1.4771,0,0,-1.4783,-1.4784,0,0,0,0,0,0,0,0,-1.4541,-1.4547,-1.4609,-1.4613,-1.4618,-1.4667,-1.4643,-1.4689,-1.4703,-1.4672,-1.4706,-1.4707,-1.4738,-1.4743,-1.4754,-1.4774,-1.4777,-1.4783,-1.4784,-1.4785,-1.4786,0,0,0,0,0,0,0,-1.4538,-1.4545,-1.4605,-1.461,-1.4615,-1.4629,-1.4637,-1.4652,-1.4699,-1.4675,-1.4679,-1.4686,-1.474,-1.4752,-1.4756,-1.4778,-1.4783,-1.4785,-1.4786,-1.4787,-1.4797,-1.4796,0,0,0,0,0,0,-1.4529,-1.4541,-1.4603,-1.4607,-1.4581,-1.463,-1.4638,-1.4651,-1.4699,-1.4707,-1.4685,-1.4688,-1.4748,-1.4753,-1.4758,-1.4753,-1.4785,-1.4787,-1.4788,-1.4797,-1.4796,-1.4795,0,0,0,0,0,0,-1.4527,-1.4534,-1.46,-1.4575,-1.4585,-1.463,-1.4643,-1.4651,-1.4663,-1.4707,-1.4716,-1.4688,-1.4749,-1.4756,-1.4767,-1.4757,-1.4788,-1.4789,-1.4798,-1.4797,-1.4796,-1.4744,0,0,0,0,0,0,-1.4524,-1.4533,-1.4531,-1.4575,-1.4586,-1.4608,-1.4643,-1.4652,-1.4666,-1.4671,-1.4712,-1.472,-1.475,-1.4764,-1.4769,-1.476,-1.4791,-1.48,-1.4798,-1.4796,-1.4747,-1.4741,-1.4736,0,0,0,0,0,-1.4521,-1.4514,-1.4531,-1.4538,-1.4585,-1.4608,-1.4614,-1.4649,-1.4665,-1.4663,-1.4692,-1.4718,-1.4757,-1.4765,-1.4771,-1.4762,-1.48,-1.4798,-1.4796,-1.4749,-1.4742,-1.4736,0,0,0,0,0,0,-1.4468,-1.4521,-1.454,-1.4547,-1.4572,-1.4617,-1.4616,-1.4641,-1.4662,-1.4666,-1.4708,-1.4717,-1.4724,-1.4745,-1.4752,-1.4758,-1.4782,-1.4781,-1.4744,-1.4738,-1.4733,-1.4727,-1.4793,0,0,0,0,0,-1.4457,-1.4471,-1.4516,-1.4518,-1.453,-1.4571,-1.4582,-1.4607,-1.4635,-1.4646,-1.4675,-1.4701,-1.4719,-1.473,-1.4749,-1.4751,-1.476,-1.4748,-1.4742,-1.4738,-1.4736,-1.4737,-1.4732,-1.4789,-1.4789,-1.4789,0,0,-1.4434,-1.4465,-1.4471,-1.4508,-1.4531,-1.4544,-1.4579,-1.4592,-1.4602,-1.4648,-1.466,-1.4683,-1.4714,-1.4721,-1.4725,-1.4738,-1.4722,-1.4735,-1.4731,-1.4732,-1.4735,-1.4729,-1.4724,-1.4787,-1.4788,-1.4788,0,0,-1.44,-1.4425,-1.4429,-1.445,-1.4484,-1.4511,-1.4512,-1.4553,-1.457,-1.4583,-1.4618,-1.463,-1.466,-1.4681,-1.4696,-1.4669,-1.4693,-1.4674,-1.4645,-1.4646,-1.4641,-1.4638,-1.4627,-1.4622,-1.4672,-1.4672,-1.4672,0,-1.4367,-1.4389,-1.4427,-1.4437,-1.4452,-1.4494,-1.4498,-1.4517,-1.4555,-1.4564,-1.4579,-1.4617,-1.4642,-1.4653,-1.4646,-1.4657,-1.4659,-1.4669,-1.4639,-1.4636,-1.4633,-1.4623,-1.4618,-1.4669,-1.467,-1.467,-1.467,0,-1.4347,-1.4361,-1.436,-1.4395,-1.441,-1.4417,-1.4455,-1.4466,-1.4489,-1.4515,-1.4527,-1.4558,-1.4584,-1.4589,-1.4612,-1.4603,-1.461,-1.4631,-1.4656,-1.4624,-1.4615,-1.4612,-1.4665,-1.4666,-1.4667,-1.4668,0,0,-1.428,-1.4336,-1.4335,-1.4351,-1.4391,-1.4403,-1.4411,-1.4436,-1.4444,-1.4469,-1.4476,-1.4501,-1.4521,-1.4537,-1.4563,-1.4564,-1.4539,-1.4585,-1.4587,-1.4574,-1.4529,-1.4512,-1.4507,-1.4556,-1.4556,-1.4555,-1.4526,0,-1.4251,-1.4268,-1.4302,-1.4309,-1.4321,-1.4362,-1.4369,-1.4394,-1.4418,-1.4432,-1.4459,-1.4475,-1.4501,-1.4511,-1.4513,-1.4541,-1.453,-1.4544,-1.4563,-1.4563,-1.4552,-1.4503,-1.4484,-1.4455,-1.4523,-1.4523,-1.4522,0,-1.4219,-1.4241,-1.4248,-1.4286,-1.4293,-1.4299,-1.4324,-1.4338,-1.4367,-1.4384,-1.4402,-1.4431,-1.4441,-1.4465,-1.448,-1.4488,-1.4498,-1.4513,-1.4513,-1.4514,-1.4539,-1.4502,-1.4447,-1.4442,-1.4517,-1.4518,-1.4518,0,-1.4167,-1.4199,-1.4207,-1.422,-1.4265,-1.4268,-1.4287,-1.4318,-1.433,-1.4352,-1.4361,-1.4384,-1.4396,-1.4413,-1.4447,-1.4462,-1.4458,-1.4484,-1.4472,-1.4471,-1.4468,-1.4467,-1.4412,-1.4476,-1.4477,-1.4477,-1.4477,0,-1.413,-1.4132,-1.4184,-1.4189,-1.4193,-1.4232,-1.4235,-1.4258,-1.4284,-1.4294,-1.4331,-1.4339,-1.4384,-1.4398,-1.4424,-1.4432,-1.4437,-1.4451,-1.4458,-1.4447,-1.4445,-1.4453,-1.4455,-1.4476,-1.4476,-1.4476,-1.4476,0,-1.4073,-1.4108,-1.4119,-1.4161,-1.4171,-1.4172,-1.4208,-1.4214,-1.424,-1.4252,-1.4257,-1.4298,-1.4316,-1.4352,-1.4379,-1.4397,-1.4398,-1.4411,-1.4387,-1.4391,-1.4376,-1.4376,-1.4323,-1.4318,-1.4386,-1.4386,-1.4385,0,-1.4046,-1.4049,-1.4091,-1.41,-1.4117,-1.4131,-1.4144,-1.4183,-1.4195,-1.4228,-1.423,-1.425,-1.4269,-1.4295,-1.4327,-1.4348,-1.4361,-1.4341,-1.4365,-1.4353,-1.4359,-1.4358,-1.4358,-1.4335,-1.4334,-1.4334,-1.4333,0,-1.3994,-1.4011,-1.4028,-1.4051,-1.4065,-1.4085,-1.4106,-1.4112,-1.4156,-1.4167,-1.4186,-1.42,-1.4228,-1.4247,-1.4273,-1.4293,-1.432,-1.4326,-1.4324,-1.4311,-1.4297,-1.4303,-1.4371,-1.4326,-1.4327,-1.4327,-1.4328,-1.4328,-1.395,-1.3954,-1.3984,-1.4001,-1.4022,-1.4041,-1.4048,-1.4075,-1.4091,-1.4116,-1.4139,-1.4155,-1.4184,-1.4221,-1.4239,-1.4252,-1.4265,-1.4262,-1.4262,-1.426,-1.4254,-1.4296,-1.4257,-1.4257,-1.4258,-1.4258,-1.4258,0,-1.3899,-1.392,-1.3936,-1.3964,-1.3978,-1.4003,-1.4028,-1.4037,-1.4051,-1.4075,-1.4092,-1.4113,-1.4132,-1.4166,-1.4187,-1.4191,-1.4204,-1.4195,-1.4195,-1.4198,-1.4242,-1.4241,-1.4184,-1.4184,-1.4184,-1.4184,-1.4185,-1.4185,-1.3874,-1.3881,-1.3901,-1.3918,-1.394,-1.3955,-1.3967,-1.3985,-1.4004,-1.4025,-1.4041,-1.4063,-1.4091,-1.4115,-1.4134,-1.4143,-1.4149,-1.4136,-1.4149,-1.4189,-1.4196,-1.4202,-1.4201,-1.4137,-1.4137,-1.4104,-1.4104,-1.4104]},{"header":{"parameterUnit":"m.s-1","parameterCategory":1,"la1":30.2991,"la2":30.254,"lo1":-89.0895,"lo2":-89.0444,"dy":0.0017,"dx":0.0017,"nx":28,"ny":28,"refTime":"2024-02-11T09:00:00:Z","depth":0,"parameterNumber":3,"parameterNumberName":"V-component_of_WINDS"},"data":[0,0,0,0,0,0,0,0,0,0,0,0,0,0,0,0,0,0,0,0,0,0,0,0,0,0,0,0,0,0,0,0,0,0,0,0,0,0,0,0,0,0,0,0,0,0,0,0,0,0,0,0,0,0,0,0,0,0,4.8892,4.8893,0,4.8986,4.8987,4.8988,4.8968,4.8966,4.8964,4.8962,4.9057,4.9061,4.9065,0,0,0,0,0,0,0,0,0,0,0,0,0,4.8696,4.87,4.8892,4.8893,4.8894,4.8985,4.8987,4.8988,4.8968,4.8966,4.8964,4.8962,4.9056,4.9061,4.9066,0,0,0,0,0,0,0,0,0,0,0,0,0,4.8785,4.8701,4.8892,4.8895,4.8896,4.8985,4.8987,4.8988,4.8968,4.8966,4.8963,4.8961,4.9054,4.906,4.9066,4.9157,0,0,4.9085,4.9088,0,0,0,0,0,0,0,0,4.878,4.8792,4.8893,4.8895,4.8897,4.8962,4.8952,4.9045,4.8969,4.8941,4.8962,4.8959,4.9028,4.9036,4.9059,4.9161,4.9165,4.9086,4.909,4.9092,4.9094,0,0,0,0,0,0,0,4.8774,4.8788,4.8929,4.8895,4.8897,4.8892,4.8902,4.897,4.8998,4.8943,4.8942,4.8953,4.9028,4.9053,4.9061,4.9167,4.9086,4.9091,4.9095,4.9097,4.9353,4.9356,0,0,0,0,0,0,4.8766,4.8783,4.8926,4.8932,4.8831,4.8898,4.8909,4.8944,4.8997,4.9003,4.8956,4.8952,4.9044,4.9054,4.9064,4.9178,4.9092,4.9098,4.9102,4.935,4.9353,4.9357,0,0,0,0,0,0,4.8762,4.8779,4.8922,4.8857,4.8875,4.8904,4.8944,4.8947,4.8972,4.9006,4.9011,4.8976,4.9042,4.9056,4.9135,4.918,4.9101,4.9106,4.9346,4.9351,4.9355,4.9402,0,0,0,0,0,0,4.8756,4.8778,4.8812,4.8858,4.8878,4.8991,4.8946,4.8951,4.8983,4.898,4.9027,4.9032,4.9041,4.9126,4.9141,4.9187,4.9111,4.9342,4.9348,4.9354,4.9397,4.9408,4.9417,0,0,0,0,0,4.8749,4.882,4.8814,4.8831,4.8922,4.8994,4.9005,4.9015,4.8987,4.9022,4.9045,4.9031,4.9173,4.9134,4.9151,4.92,4.9339,4.9347,4.9353,4.9392,4.9406,4.9417,0,0,0,0,0,0,4.8777,4.8826,4.8819,4.8907,4.8947,4.899,4.9035,4.9028,4.9075,4.907,4.9079,4.909,4.9172,4.9193,4.915,4.9293,4.9252,4.9263,4.9276,4.9289,4.9299,4.9293,4.9116,0,0,0,0,0,4.8794,4.8848,4.8887,4.8961,4.8981,4.9005,4.9036,4.904,4.9081,4.9098,4.9126,4.9166,4.922,4.9255,4.9306,4.9399,4.9411,4.9441,4.9452,4.946,4.947,4.9525,4.954,4.9379,4.9379,4.9379,0,0,4.8828,4.8861,4.8895,4.8968,4.8999,4.9056,4.9019,4.908,4.9123,4.9107,4.9185,4.9207,4.9253,4.9341,4.938,4.9361,4.9517,4.9469,4.9475,4.948,4.9533,4.9548,4.9562,4.9384,4.9383,4.9382,0,0,4.892,4.8949,4.9016,4.9049,4.9097,4.9113,4.9129,4.9175,4.9189,4.9268,4.9259,4.9309,4.9401,4.9436,4.9465,4.9574,4.9565,4.959,4.9645,4.9698,4.9711,4.9722,4.9764,4.9779,4.9599,4.96,4.96,0,4.8956,4.9042,4.9051,4.9114,4.9148,4.9138,4.9207,4.9237,4.93,4.9324,4.9301,4.9419,4.9448,4.9546,4.9573,4.9596,4.9617,4.9586,4.9708,4.972,4.973,4.9771,4.9786,4.9603,4.9602,4.9602,4.9602,0,4.9086,4.9146,4.9194,4.9257,4.9296,4.9361,4.9381,4.9419,4.942,4.9439,4.9521,4.9557,4.9617,4.964,4.964,4.9739,4.9726,4.9706,4.9665,4.9749,4.9787,4.9802,4.9607,4.9606,4.9605,4.9604,0,0,4.9197,4.9267,4.9285,4.9315,4.9369,4.9416,4.9482,4.9542,4.9576,4.962,4.9677,4.9757,4.974,4.9773,4.9778,4.9824,4.9914,4.9799,4.98,4.9822,5.0029,5.0046,5.0063,4.9907,4.991,4.9912,5.0026,0,4.9297,4.9415,4.9426,4.9532,4.9589,4.9582,4.964,4.968,4.97,4.9752,4.9773,4.9831,4.9802,4.9823,4.9868,4.9893,4.9956,4.9884,4.9962,4.9965,4.9954,5.0083,5.01,5.0206,5.0041,5.0043,5.0045,0,4.9428,4.9479,4.9591,4.9641,4.9666,4.9718,4.9776,4.9825,4.9871,4.9883,4.9922,4.9922,4.9992,4.9948,5.0046,4.9997,5.003,5.0047,5.0051,5.0061,5.0012,5.0099,5.024,5.0257,5.0068,5.0066,5.0064,0,4.9503,4.9598,4.9679,4.9705,4.9764,4.9802,4.9828,4.9872,4.9909,4.9959,4.9984,5.0041,5.0074,5.0119,5.0135,5.0101,5.0233,5.019,5.0247,5.0247,5.0276,5.0275,5.0428,5.0293,5.0292,5.0292,5.0292,0,4.9615,4.9684,4.9714,4.9764,4.9843,4.9856,4.9934,4.9958,4.9998,5.0053,5.0049,5.0101,5.0118,5.0173,5.0186,5.0267,5.0281,5.0293,5.0297,5.0296,5.0295,5.0319,5.0313,5.0296,5.0295,5.0295,5.0294,0,4.9711,4.9734,4.9822,4.9872,4.9886,4.9943,4.9986,5.0035,5.0054,5.0125,5.0142,5.0173,5.0239,5.0259,5.0337,5.0346,5.0442,5.0437,5.0427,5.0429,5.0486,5.0482,5.0662,5.0688,5.0533,5.0534,5.0535,0,4.9782,4.9836,4.9893,4.9931,4.996,5.0019,5.0058,5.0074,5.0114,5.0173,5.0216,5.0281,5.0334,5.0439,5.0469,5.053,5.0528,5.0587,5.0537,5.0536,5.0534,5.0532,5.0539,5.0597,5.0599,5.06,5.0601,0,4.9907,4.9917,4.9972,5.0034,5.0081,5.0129,5.0176,5.0207,5.0229,5.0275,5.0344,5.0385,5.0467,5.0533,5.0595,5.0623,5.0618,5.0617,5.0634,5.0635,5.0629,5.0637,5.0457,5.0613,5.0612,5.0611,5.061,5.061,4.9995,5.0045,5.0094,5.0158,5.0195,5.024,5.029,5.0317,5.0374,5.0443,5.0449,5.0523,5.0571,5.0655,5.0686,5.0746,5.0729,5.0752,5.0759,5.0766,5.0772,5.0617,5.0757,5.0756,5.0756,5.0756,5.0755,0,5.0123,5.0155,5.0214,5.0281,5.0332,5.0323,5.0375,5.0419,5.0485,5.053,5.0584,5.0664,5.0729,5.0765,5.083,5.0871,5.087,5.0888,5.0886,5.0894,5.0782,5.0762,5.0887,5.0887,5.0887,5.0887,5.0887,5.0887,5.0195,5.028,5.0296,5.04,5.0431,5.0506,5.0537,5.0579,5.0617,5.0707,5.0761,5.0785,5.0828,5.0897,5.0957,5.0966,5.0991,5.1011,5.1019,5.0914,5.0901,5.0888,5.087,5.1016,5.1016,5.1127,5.1128,5.1128]}]]